TimeMST,TemperatureF,Dew PointF,Humidity,Sea Level PressureIn,VisibilityMPH,Wind Direction,Wind SpeedMPH,Gust SpeedMPH,PrecipitationIn,Events,Conditions,WindDirDegrees,DateUTC
12:53 AM,41.0,28.9,62,30.26,10.0,South,3.5,-,N/A,,Clear,190,2013-12-15 07:53:00
1:53 AM,42.1,28.0,58,30.25,10.0,ESE,3.5,-,N/A,,Clear,110,2013-12-15 08:53:00
2:53 AM,39.9,28.0,63,30.25,10.0,Calm,Calm,-,N/A,,Clear,0,2013-12-15 09:53:00
3:53 AM,39.0,27.0,62,30.25,10.0,Calm,Calm,-,N/A,,Clear,0,2013-12-15 10:53:00
4:53 AM,41.0,27.0,57,30.25,10.0,East,3.5,-,N/A,,Clear,100,2013-12-15 11:53:00
5:53 AM,37.9,28.0,68,30.26,10.0,Calm,Calm,-,N/A,,Clear,0,2013-12-15 12:53:00
6:53 AM,39.9,26.1,58,30.26,10.0,SE,5.8,-,N/A,,Clear,130,2013-12-15 13:53:00
7:53 AM,43.0,26.1,51,30.26,10.0,SSE,8.1,-,N/A,,Clear,150,2013-12-15 14:53:00
8:53 AM,54.0,23.0,30,30.24,10.0,ESE,17.3,21.9,N/A,,Clear,120,2013-12-15 15:53:00
9:53 AM,57.9,21.9,25,30.25,10.0,East,15.0,21.9,N/A,,Clear,100,2013-12-15 16:53:00
10:53 AM,62.1,19.9,20,30.25,10.0,East,13.8,21.9,N/A,,Clear,100,2013-12-15 17:53:00
11:53 AM,64.9,19.9,18,30.21,10.0,ENE,3.5,-,N/A,,Clear,70,2013-12-15 18:53:00
12:53 PM,66.0,21.0,18,30.18,10.0,North,6.9,-,N/A,,Clear,10,2013-12-15 19:53:00
1:53 PM,66.0,21.0,18,30.16,10.0,North,11.5,-,N/A,,Clear,10,2013-12-15 20:53:00
2:53 PM,66.9,19.0,16,30.15,10.0,North,10.4,-,N/A,,Clear,360,2013-12-15 21:53:00
3:53 PM,66.9,21.9,18,30.14,10.0,North,10.4,-,N/A,,Clear,350,2013-12-15 22:53:00
4:53 PM,64.9,25.0,22,30.14,10.0,North,6.9,-,N/A,,Clear,360,2013-12-15 23:53:00
5:53 PM,60.1,26.1,27,30.16,10.0,NNW,4.6,-,N/A,,Clear,330,2013-12-16 00:53:00
6:53 PM,55.9,27.0,33,30.18,10.0,WSW,4.6,-,N/A,,Clear,240,2013-12-16 01:53:00
7:53 PM,55.0,27.0,34,30.19,10.0,WSW,3.5,-,N/A,,Clear,250,2013-12-16 02:53:00
8:53 PM,51.1,28.9,43,30.17,10.0,South,3.5,-,N/A,,Clear,180,2013-12-16 03:53:00
9:53 PM,48.0,30.0,50,30.17,10.0,South,3.5,-,N/A,,Clear,190,2013-12-16 04:53:00
10:53 PM,50.0,27.0,41,30.17,10.0,Variable,3.5,-,N/A,,Clear,0,2013-12-16 05:53:00
11:53 PM,48.0,26.1,42,30.16,10.0,SSW,4.6,-,N/A,,Clear,200,2013-12-16 06:53:00